| time (UTC) | temp F | wind direction | speed MPH | gust MPH | rain 1hr in | rain 24hr in | rain mn in | humidity % | barometer mb |
| 20260507134500 | 62 | 208 | 7.0 | 20.0 | 0.00 | 0.11 | 0.11 | 65 | 1005.1 |
| 20260507134001 | 62 | 211 | 15.0 | 23.0 | 0.00 | 0.11 | 0.11 | 66 | 1003.4 |
| 20260507133003 | 63 | 211 | 13.0 | 21.0 | 0.00 | 0.11 | 0.11 | 69 | 1002.3 |
| 20260507132500 | 63 | 226 | 8.0 | 22.0 | 0.00 | 0.11 | 0.11 | 69 | 1002.1 |
| 20260507132000 | 63 | 207 | 6.0 | 22.0 | 0.00 | 0.11 | 0.11 | 69 | 1001.9 |
| 20260507131459 | 64 | 201 | 13.0 | 22.0 | 0.00 | 0.11 | 0.11 | 68 | 1002.2 |
| 20260507131000 | 64 | 211 | 7.0 | 17.0 | 0.00 | 0.11 | 0.11 | 71 | 1002.1 |
| 20260507130500 | 64 | 205 | 8.0 | 17.0 | 0.00 | 0.11 | 0.11 | 70 | 1002.4 |
| 20260507125459 | 64 | 216 | 11.0 | 17.0 | 0.00 | 0.11 | 0.11 | 69 | 1002.5 |
| 20260507124459 | 64 | 222 | 9.0 | 20.0 | 0.00 | 0.11 | 0.11 | 68 | 1002.3 |
| 20260507124001 | 65 | 218 | 11.0 | 20.0 | 0.00 | 0.11 | 0.11 | 70 | 1001.8 |
| 20260507123459 | 65 | 212 | 11.0 | 18.0 | 0.00 | 0.11 | 0.11 | 73 | 1001.9 |
| 20260507123002 | 65 | 187 | 9.0 | 18.0 | 0.00 | 0.11 | 0.11 | 75 | 1001.8 |
| 20260507122459 | 65 | 173 | 11.0 | 17.0 | 0.00 | 0.11 | 0.11 | 76 | 1001.7 |
| 20260507122001 | 65 | 176 | 6.0 | 14.0 | 0.00 | 0.11 | 0.11 | 78 | 1001.9 |
| 20260507121001 | 65 | 176 | 7.0 | 20.0 | 0.00 | 0.11 | 0.11 | 81 | 1001.4 |
| 20260507120459 | 65 | 190 | 8.0 | 20.0 | 0.00 | 0.11 | 0.11 | 83 | 1001.4 |
| 20260507120001 | 65 | 206 | 8.0 | 14.0 | 0.00 | 0.11 | 0.11 | 84 | 1001.3 |
| 20260507115001 | 65 | 195 | 5.0 | 17.0 | 0.00 | 0.11 | 0.11 | 86 | 1001.3 |
| 20260507114500 | 66 | 203 | 9.0 | 18.0 | 0.00 | 0.11 | 0.11 | 86 | 1000.8 |
| 20260507114002 | 66 | 200 | 10.0 | 18.0 | 0.00 | 0.11 | 0.11 | 86 | 1000.9 |
| 20260507113500 | 66 | 202 | 12.0 | 18.0 | 0.00 | 0.11 | 0.11 | 86 | 1001.0 |
| 20260507113002 | 66 | 198 | 10.0 | 18.0 | 0.00 | 0.11 | 0.11 | 86 | 1000.9 |
| 20260507112500 | 66 | 169 | 9.0 | 18.0 | 0.00 | 0.11 | 0.11 | 86 | 1000.7 |
| 20260507112002 | 66 | 199 | 8.0 | 15.0 | 0.00 | 0.11 | 0.11 | 86 | 1000.5 |
| 20260507111500 | 66 | 221 | 8.0 | 16.0 | 0.00 | 0.11 | 0.11 | 87 | 1000.4 |
| 20260507111002 | 66 | 208 | 5.0 | 17.0 | 0.00 | 0.11 | 0.11 | 87 | 1000.4 |
| 20260507110459 | 66 | 208 | 7.0 | 24.0 | 0.00 | 0.11 | 0.11 | 87 | 1000.1 |
| 20260507110002 | 66 | 204 | 8.0 | 24.0 | 0.00 | 0.11 | 0.11 | 87 | 999.9 |
| 20260507105459 | 66 | 205 | 9.0 | 20.0 | 0.00 | 0.11 | 0.11 | 87 | 1000.0 |
| 20260507105001 | 67 | 202 | 10.0 | 20.0 | 0.00 | 0.11 | 0.11 | 87 | 1000.0 |
| 20260507104002 | 67 | 186 | 3.0 | 18.0 | 0.00 | 0.11 | 0.11 | 88 | 999.7 |
| 20260507103459 | 67 | 178 | 9.0 | 20.0 | 0.00 | 0.11 | 0.11 | 88 | 999.8 |
| 20260507103001 | 67 | 178 | 8.0 | 20.0 | 0.00 | 0.11 | 0.11 | 88 | 999.7 |
| 20260507102001 | 67 | 205 | 8.0 | 16.0 | 0.00 | 0.11 | 0.11 | 88 | 999.0 |
| 20260507101501 | 67 | 196 | 8.0 | 16.0 | 0.00 | 0.11 | 0.11 | 89 | 999.0 |
| 20260507100459 | 67 | 174 | 8.0 | 15.0 | 0.00 | 0.11 | 0.11 | 89 | 999.0 |
| 20260507100002 | 67 | 170 | 8.0 | 15.0 | 0.00 | 0.11 | 0.11 | 89 | 998.5 |
| 20260507095501 | 67 | 185 | 8.0 | 15.0 | 0.00 | 0.11 | 0.11 | 89 | 998.6 |
| 20260507095001 | 67 | 204 | 5.0 | 17.0 | 0.00 | 0.11 | 0.11 | 88 | 998.3 |
| 20260507094459 | 67 | 210 | 6.0 | 18.0 | 0.00 | 0.11 | 0.11 | 88 | 998.4 |
| 20260507093500 | 67 | 209 | 6.0 | 18.0 | 0.00 | 0.11 | 0.11 | 90 | 997.7 |
| 20260507093002 | 67 | 199 | 7.0 | 24.0 | 0.00 | 0.11 | 0.11 | 90 | 997.8 |
| 20260507092459 | 68 | 221 | 7.0 | 24.0 | 0.00 | 0.11 | 0.11 | 90 | 997.4 |
| 20260507092001 | 68 | 220 | 9.0 | 21.0 | 0.00 | 0.11 | 0.11 | 90 | 997.3 |
| 20260507091459 | 68 | 186 | 8.0 | 16.0 | 0.00 | 0.11 | 0.11 | 90 | 997.1 |
| 20260507091001 | 67 | 210 | 8.0 | 15.0 | 0.00 | 0.11 | 0.11 | 90 | 996.9 |
| 20260507090459 | 67 | 217 | 8.0 | 18.0 | 0.00 | 0.11 | 0.11 | 90 | 997.5 |
| 20260507090002 | 67 | 202 | 10.0 | 18.0 | 0.00 | 0.11 | 0.11 | 90 | 997.5 |
| 20260507085459 | 67 | 209 | 7.0 | 13.0 | 0.00 | 0.11 | 0.11 | 90 | 997.9 |
| 20260507085002 | 67 | 216 | 2.0 | 9.0 | 0.00 | 0.11 | 0.11 | 91 | 998.0 |
| 20260507084501 | 67 | 220 | 5.0 | 13.0 | 0.03 | 0.11 | 0.11 | 91 | 998.4 |
| 20260507084001 | 67 | 224 | 8.0 | 13.0 | 0.03 | 0.11 | 0.11 | 91 | 998.0 |
| 20260507083459 | 67 | 229 | 4.0 | 11.0 | 0.03 | 0.11 | 0.11 | 92 | 997.8 |
| 20260507083003 | 67 | 220 | 6.0 | 15.0 | 0.03 | 0.11 | 0.11 | 91 | 997.6 |
| 20260507082501 | 67 | 218 | 5.0 | 15.0 | 0.04 | 0.11 | 0.11 | 91 | 997.9 |
| 20260507082002 | 67 | 213 | 6.0 | 15.0 | 0.08 | 0.11 | 0.11 | 90 | 998.3 |
| 20260507081459 | 67 | 201 | 7.0 | 13.0 | 0.11 | 0.11 | 0.11 | 90 | 997.6 |
| 20260507080501 | 67 | 206 | 5.0 | 8.0 | 0.11 | 0.11 | 0.11 | 91 | 998.0 |
| 20260507080001 | 67 | 200 | 4.0 | 8.0 | 0.11 | 0.11 | 0.11 | 91 | 998.4 |
| 20260507075501 | 68 | 210 | 4.0 | 7.0 | 0.11 | 0.11 | 0.11 | 91 | 998.1 |
| 20260507075003 | 68 | 207 | 4.0 | 7.0 | 0.11 | 0.11 | 0.11 | 91 | 998.4 |
| 20260507074002 | 68 | 183 | 2.0 | 7.0 | 0.08 | 0.08 | 0.08 | 90 | 998.6 |
| 20260507073500 | 68 | 168 | 2.0 | 7.0 | 0.08 | 0.08 | 0.08 | 90 | 998.8 |
| 20260507073002 | 69 | 142 | 3.0 | 6.0 | 0.08 | 0.08 | 0.08 | 89 | 998.5 |
| 20260507072459 | 70 | 158 | 2.0 | 8.0 | 0.04 | 0.04 | 0.04 | 87 | 998.8 |
| 20260507072001 | 71 | 175 | 2.0 | 8.0 | 0.03 | 0.03 | 0.03 | 83 | 998.9 |
| 20260507071500 | 72 | 170 | 2.0 | 9.0 | 0.00 | 0.00 | 0.00 | 82 | 998.7 |
| 20260507071001 | 72 | 194 | 1.0 | 11.0 | 0.00 | 0.00 | 0.00 | 83 | 998.8 |
| 20260507070459 | 72 | 200 | 4.0 | 11.0 | 0.00 | 0.00 | 0.00 | 83 | 998.9 |
| 20260507070002 | 73 | 178 | 4.0 | 9.0 | 0.00 | 0.00 | 0.00 | 83 | 998.5 |
| 20260507065459 | 74 | 171 | 4.0 | 9.0 | 0.00 | 0.00 | 0.00 | 86 | 998.4 |
| 20260507065001 | 75 | 192 | 4.0 | 7.0 | 0.00 | 0.00 | 0.00 | 89 | 998.4 |
| 20260507064500 | 74 | 201 | 2.0 | 7.0 | 0.00 | 0.00 | 0.00 | 89 | 998.4 |
| 20260507064001 | 74 | 194 | 2.0 | 7.0 | 0.00 | 0.00 | 0.00 | 89 | 998.5 |
| 20260507063501 | 74 | 176 | 3.0 | 7.0 | 0.00 | 0.00 | 0.00 | 90 | 998.5 |
| 20260507063002 | 74 | 33 | 0.0 | 2.0 | 0.00 | 0.00 | 0.00 | 90 | 998.0 |
| 20260507062500 | 74 | 16 | 2.0 | 4.0 | 0.00 | 0.00 | 0.00 | 90 | 997.7 |
| 20260507062002 | 74 | 15 | 0.0 | 4.0 | 0.00 | 0.00 | 0.00 | 90 | 997.9 |
| 20260507061500 | 74 | 2 | 2.0 | 4.0 | 0.00 | 0.00 | 0.00 | 89 | 997.6 |
| 20260507061001 | 74 | 19 | 2.0 | 4.0 | 0.00 | 0.00 | 0.00 | 89 | 997.9 |
| 20260507060002 | 75 | 33 | 2.0 | 6.0 | 0.00 | 0.00 | 0.00 | 88 | 997.8 |
| 20260507055500 | 75 | 280 | 2.0 | 4.0 | 0.00 | 0.00 | 0.00 | 88 | 997.7 |
| 20260507055001 | 75 | 280 | 0.0 | 4.0 | 0.00 | 0.00 | 0.00 | 88 | 997.9 |
| 20260507053500 | 75 | 273 | 1.0 | 4.0 | 0.00 | 0.00 | 0.00 | 87 | 998.4 |
| 20260507053001 | 75 | 287 | 1.0 | 6.0 | 0.00 | 0.00 | 0.00 | 87 | 998.5 |
| 20260507052500 | 75 | 309 | 4.0 | 6.0 | 0.00 | 0.00 | 0.00 | 87 | 998.3 |
| 20260507051003 | 75 | 354 | 2.0 | 6.0 | 0.00 | 0.00 | 0.00 | 87 | 998.4 |
| 20260507050500 | 75 | 348 | 4.0 | 6.0 | 0.00 | 0.00 | 0.00 | 87 | 998.4 |
| 20260507050002 | 75 | 10 | 3.0 | 6.0 | 0.00 | 0.00 | 0.00 | 87 | 998.5 |
| 20260507045500 | 75 | 10 | 2.0 | 6.0 | 0.00 | 0.00 | 0.00 | 86 | 998.3 |
| 20260507045002 | 76 | 15 | 3.0 | 6.0 | 0.00 | 0.00 | 0.00 | 86 | 998.5 |
| 20260507044459 | 76 | 15 | 4.0 | 6.0 | 0.00 | 0.00 | 0.00 | 86 | 998.3 |
| 20260507044003 | 76 | 358 | 2.0 | 7.0 | 0.00 | 0.00 | 0.00 | 86 | 998.4 |
| 20260507043501 | 76 | 351 | 4.0 | 7.0 | 0.00 | 0.00 | 0.00 | 86 | 998.4 |
| 20260507042500 | 76 | 28 | 3.0 | 7.0 | 0.00 | 0.00 | 0.00 | 85 | 998.5 |
| 20260507042003 | 76 | 32 | 3.0 | 7.0 | 0.00 | 0.00 | 0.00 | 85 | 998.3 |
| 20260507041459 | 76 | 20 | 4.0 | 7.0 | 0.00 | 0.00 | 0.00 | 85 | 998.4 |
| 20260507041002 | 76 | 21 | 3.0 | 7.0 | 0.00 | 0.00 | 0.00 | 85 | 998.4 |
| 20260507040003 | 76 | 349 | 2.0 | 8.0 | 0.00 | 0.00 | 0.00 | 84 | 998.6 |
| 20260507035002 | 77 | 5 | 2.0 | 8.0 | 0.00 | 0.00 | 0.00 | 83 | 998.5 |
| 20260507034500 | 77 | 354 | 3.0 | 8.0 | 0.00 | 0.00 | 0.00 | 83 | 998.7 |
| 20260507033500 | 77 | 338 | 4.0 | 7.0 | 0.00 | 0.00 | 0.00 | 83 | 998.8 |
| 20260507033002 | 76 | 340 | 4.0 | 6.0 | 0.00 | 0.00 | 0.00 | 83 | 998.9 |
| 20260507032459 | 76 | 6 | 2.0 | 6.0 | 0.00 | 0.00 | 0.00 | 84 | 998.8 |
| 20260507032002 | 76 | 24 | 3.0 | 4.0 | 0.00 | 0.00 | 0.00 | 84 | 999.0 |
| 20260507031500 | 76 | 29 | 2.0 | 4.0 | 0.00 | 0.00 | 0.00 | 83 | 999.1 |
| 20260507031001 | 76 | 9 | 2.0 | 4.0 | 0.00 | 0.00 | 0.00 | 83 | 999.2 |
| 20260507030500 | 77 | 3 | 2.0 | 4.0 | 0.00 | 0.00 | 0.00 | 83 | 999.1 |
| 20260507030003 | 77 | 11 | 2.0 | 4.0 | 0.00 | 0.00 | 0.00 | 83 | 999.4 |
| 20260507025500 | 77 | 18 | 0.0 | 2.0 | 0.00 | 0.00 | 0.00 | 83 | 999.4 |
| 20260507025002 | 77 | 11 | 2.0 | 2.0 | 0.00 | 0.00 | 0.00 | 82 | 999.5 |
| 20260507024002 | 77 | 346 | 2.0 | 4.0 | 0.00 | 0.00 | 0.00 | 82 | 999.5 |
| 20260507023500 | 77 | 349 | 2.0 | 4.0 | 0.00 | 0.00 | 0.00 | 82 | 999.4 |
| 20260507023004 | 77 | 2 | 2.0 | 4.0 | 0.00 | 0.00 | 0.00 | 82 | 999.3 |
| 20260507022500 | 77 | 22 | 2.0 | 4.0 | 0.00 | 0.00 | 0.00 | 81 | 999.4 |
| 20260507022003 | 78 | 27 | 1.0 | 4.0 | 0.00 | 0.00 | 0.00 | 81 | 999.3 |
| 20260507021003 | 78 | 5 | 2.0 | 4.0 | 0.00 | 0.00 | 0.00 | 81 | 999.6 |
| 20260507020002 | 77 | 9 | 2.0 | 6.0 | 0.00 | 0.00 | 0.00 | 81 | 999.5 |
| 20260507015501 | 77 | 36 | 2.0 | 4.0 | 0.00 | 0.00 | 0.00 | 81 | 999.2 |
| 20260507015002 | 77 | 24 | 2.0 | 4.0 | 0.00 | 0.00 | 0.00 | 81 | 999.4 |
| 20260507014500 | 77 | 32 | 2.0 | 4.0 | 0.00 | 0.00 | 0.00 | 82 | 999.5 |
| 20260507014004 | 77 | 26 | 2.0 | 8.0 | 0.00 | 0.00 | 0.00 | 82 | 999.4 |
| 20260507013500 | 77 | 22 | 3.0 | 8.0 | 0.00 | 0.00 | 0.00 | 82 | 999.1 |
| 20260507013002 | 77 | 17 | 5.0 | 8.0 | 0.00 | 0.00 | 0.00 | 81 | 999.0 |
| 20260507012500 | 77 | 9 | 4.0 | 8.0 | 0.00 | 0.00 | 0.00 | 81 | 998.7 |
| 20260507012002 | 77 | 30 | 4.0 | 9.0 | 0.00 | 0.00 | 0.00 | 81 | 998.8 |
| 20260507011500 | 77 | 31 | 4.0 | 9.0 | 0.00 | 0.00 | 0.00 | 81 | 999.0 |
| 20260507011004 | 77 | 9 | 7.0 | 9.0 | 0.00 | 0.00 | 0.00 | 80 | 998.5 |
| 20260507010500 | 77 | 22 | 3.0 | 7.0 | 0.00 | 0.00 | 0.00 | 81 | 998.7 |
| 20260507005002 | 78 | 14 | 5.0 | 8.0 | 0.00 | 0.00 | 0.00 | 80 | 998.8 |
| 20260507004501 | 78 | 22 | 4.0 | 8.0 | 0.00 | 0.00 | 0.00 | 79 | 998.7 |
| 20260507004002 | 78 | 1 | 5.0 | 8.0 | 0.00 | 0.00 | 0.00 | 79 | 998.9 |
| 20260507003502 | 78 | 9 | 4.0 | 11.0 | 0.00 | 0.00 | 0.00 | 79 | 999.0 |
| 20260507002002 | 78 | 13 | 4.0 | 9.0 | 0.00 | 0.00 | 0.00 | 78 | 998.8 |
| 20260507001501 | 79 | 9 | 6.0 | 9.0 | 0.00 | 0.00 | 0.00 | 78 | 999.1 |
| 20260507001004 | 79 | 3 | 4.0 | 8.0 | 0.00 | 0.00 | 0.00 | 77 | 999.0 |
| 20260507000501 | 79 | 5 | 4.0 | 7.0 | 0.00 | 0.00 | 0.00 | 77 | 999.1 |
| 20260507000003 | 79 | 10 | 4.0 | 7.0 | 0.00 | 0.00 | 0.00 | 77 | 999.1 |
| 20260506235500 | 80 | 14 | 3.0 | 6.0 | 0.00 | 0.00 | 0.00 | 76 | 999.1 |
| 20260506235003 | 80 | 16 | 3.0 | 7.0 | 0.00 | 0.00 | 0.00 | 76 | 999.3 |
| 20260506234501 | 80 | 18 | 4.0 | 7.0 | 0.00 | 0.00 | 0.00 | 75 | 999.2 |
| 20260506233502 | 81 | 358 | 4.0 | 8.0 | 0.00 | 0.00 | 0.00 | 74 | 999.1 |
| 20260506233002 | 81 | 10 | 5.0 | 11.0 | 0.00 | 0.00 | 0.00 | 74 | 999.1 |
| 20260506232502 | 81 | 26 | 6.0 | 11.0 | 0.00 | 0.00 | 0.00 | 73 | 999.0 |
| 20260506232002 | 81 | 36 | 6.0 | 11.0 | 0.00 | 0.00 | 0.00 | 73 | 998.8 |
| 20260506231501 | 82 | 21 | 7.0 | 11.0 | 0.00 | 0.00 | 0.00 | 72 | 998.6 |
| 20260506231002 | 82 | 1 | 5.0 | 13.0 | 0.00 | 0.00 | 0.00 | 71 | 998.9 |
| 20260506230500 | 82 | 18 | 7.0 | 14.0 | 0.00 | 0.00 | 0.00 | 71 | 998.7 |
| 20260506230002 | 82 | 31 | 7.0 | 14.0 | 0.00 | 0.00 | 0.00 | 71 | 998.8 |
| 20260506225501 | 82 | 43 | 8.0 | 14.0 | 0.00 | 0.00 | 0.00 | 71 | 998.6 |
| 20260506225004 | 82 | 35 | 8.0 | 14.0 | 0.00 | 0.00 | 0.00 | 72 | 998.9 |
| 20260506224500 | 82 | 349 | 3.0 | 11.0 | 0.00 | 0.00 | 0.00 | 73 | 998.9 |
| 20260506224002 | 82 | 355 | 5.0 | 11.0 | 0.00 | 0.00 | 0.00 | 73 | 999.2 |
| 20260506223502 | 82 | 9 | 7.0 | 11.0 | 0.00 | 0.00 | 0.00 | 73 | 999.0 |
| 20260506222501 | 82 | 22 | 8.0 | 15.0 | 0.00 | 0.00 | 0.00 | 72 | 999.3 |
| 20260506222002 | 82 | 24 | 8.0 | 15.0 | 0.00 | 0.00 | 0.00 | 72 | 999.3 |
| 20260506221500 | 82 | 17 | 5.0 | 14.0 | 0.00 | 0.00 | 0.00 | 72 | 999.3 |
| 20260506221002 | 83 | 13 | 4.0 | 11.0 | 0.00 | 0.00 | 0.00 | 71 | 999.4 |
| 20260506220502 | 83 | 1 | 7.0 | 11.0 | 0.00 | 0.00 | 0.00 | 71 | 999.2 |
| 20260506220003 | 83 | 13 | 4.0 | 9.0 | 0.00 | 0.00 | 0.00 | 72 | 999.2 |
| 20260506215501 | 83 | 24 | 4.0 | 8.0 | 0.00 | 0.00 | 0.00 | 71 | 999.3 |
| 20260506215002 | 84 | 38 | 4.0 | 8.0 | 0.00 | 0.00 | 0.00 | 71 | 999.3 |
| 20260506213500 | 84 | 338 | 2.0 | 7.0 | 0.00 | 0.00 | 0.00 | 69 | 999.7 |
| 20260506213002 | 85 | 347 | 2.0 | 7.0 | 0.00 | 0.00 | 0.00 | 69 | 999.5 |
| 20260506212502 | 85 | 340 | 4.0 | 8.0 | 0.00 | 0.00 | 0.00 | 68 | 999.6 |
| 20260506212003 | 85 | 329 | 4.0 | 9.0 | 0.00 | 0.00 | 0.00 | 68 | 999.3 |
| 20260506211003 | 85 | 348 | 5.0 | 11.0 | 0.00 | 0.00 | 0.00 | 66 | 999.1 |
| 20260506210500 | 86 | 10 | 5.0 | 11.0 | 0.00 | 0.00 | 0.00 | 66 | 999.1 |
| 20260506205500 | 86 | 343 | 6.0 | 13.0 | 0.00 | 0.00 | 0.00 | 65 | 999.5 |
| 20260506205002 | 86 | 356 | 5.0 | 16.0 | 0.00 | 0.00 | 0.00 | 65 | 999.3 |
| 20260506204500 | 86 | 357 | 7.0 | 16.0 | 0.00 | 0.00 | 0.00 | 64 | 999.4 |
| 20260506204003 | 87 | 2 | 9.0 | 14.0 | 0.00 | 0.00 | 0.00 | 64 | 999.5 |
| 20260506203500 | 87 | 9 | 6.0 | 14.0 | 0.00 | 0.00 | 0.00 | 64 | 999.7 |
| 20260506203003 | 87 | 347 | 5.0 | 14.0 | 0.00 | 0.00 | 0.00 | 64 | 999.6 |
| 20260506202502 | 87 | 353 | 8.0 | 14.0 | 0.00 | 0.00 | 0.00 | 63 | 999.7 |
| 20260506202002 | 87 | 3 | 4.0 | 13.0 | 0.00 | 0.00 | 0.00 | 63 | 999.6 |
| 20260506201500 | 87 | 5 | 4.0 | 16.0 | 0.00 | 0.00 | 0.00 | 63 | 999.5 |
| 20260506201002 | 87 | 351 | 9.0 | 16.0 | 0.00 | 0.00 | 0.00 | 63 | 999.5 |
| 20260506200501 | 88 | 332 | 7.0 | 16.0 | 0.00 | 0.00 | 0.00 | 63 | 1000.0 |
| 20260506200004 | 88 | 346 | 8.0 | 16.0 | 0.00 | 0.00 | 0.00 | 63 | 1000.0 |
| 20260506195502 | 88 | 12 | 8.0 | 16.0 | 0.00 | 0.00 | 0.00 | 63 | 999.8 |
| 20260506195004 | 88 | 1 | 4.0 | 16.0 | 0.00 | 0.00 | 0.00 | 63 | 999.7 |
| 20260506194003 | 88 | 5 | 6.0 | 14.0 | 0.00 | 0.00 | 0.00 | 62 | 999.9 |
| 20260506193502 | 88 | 1 | 9.0 | 16.0 | 0.00 | 0.00 | 0.00 | 62 | 999.7 |
| 20260506193003 | 88 | 352 | 9.0 | 16.0 | 0.00 | 0.00 | 0.00 | 62 | 999.7 |
| 20260506192501 | 88 | 344 | 5.0 | 15.0 | 0.00 | 0.00 | 0.00 | 62 | 999.9 |
| 20260506192003 | 88 | 343 | 4.0 | 16.0 | 0.00 | 0.00 | 0.00 | 62 | 999.9 |
| 20260506191501 | 88 | 353 | 8.0 | 18.0 | 0.00 | 0.00 | 0.00 | 62 | 999.9 |
| 20260506191002 | 88 | 358 | 11.0 | 18.0 | 0.00 | 0.00 | 0.00 | 63 | 999.9 |
| 20260506190003 | 88 | 333 | 9.0 | 16.0 | 0.00 | 0.00 | 0.00 | 62 | 1000.1 |
| 20260506185501 | 87 | 338 | 6.0 | 14.0 | 0.00 | 0.00 | 0.00 | 63 | 1000.2 |
| 20260506185003 | 88 | 348 | 4.0 | 16.0 | 0.00 | 0.00 | 0.00 | 61 | 1000.2 |
| 20260506184501 | 88 | 346 | 7.0 | 16.0 | 0.00 | 0.00 | 0.00 | 61 | 1000.2 |
| 20260506184002 | 88 | 326 | 6.0 | 14.0 | 0.00 | 0.00 | 0.00 | 61 | 1000.4 |
| 20260506183501 | 87 | 341 | 8.0 | 18.0 | 0.00 | 0.00 | 0.00 | 62 | 1000.3 |
| 20260506182500 | 87 | 344 | 11.0 | 18.0 | 0.00 | 0.00 | 0.00 | 63 | 1000.4 |
| 20260506182002 | 87 | 354 | 10.0 | 14.0 | 0.00 | 0.00 | 0.00 | 62 | 1000.5 |
| 20260506181500 | 87 | 351 | 8.0 | 14.0 | 0.00 | 0.00 | 0.00 | 62 | 1000.4 |
| 20260506180502 | 89 | 13 | 8.0 | 15.0 | 0.00 | 0.00 | 0.00 | 61 | 1000.6 |
| 20260506180005 | 88 | 15 | 8.0 | 15.0 | 0.00 | 0.00 | 0.00 | 60 | 1000.5 |
| 20260506175502 | 87 | 24 | 9.0 | 16.0 | 0.00 | 0.00 | 0.00 | 63 | 1000.6 |
| 20260506175004 | 87 | 18 | 8.0 | 16.0 | 0.00 | 0.00 | 0.00 | 64 | 1000.8 |
| 20260506174500 | 87 | 350 | 7.0 | 20.0 | 0.00 | 0.00 | 0.00 | 63 | 1000.8 |
| 20260506173500 | 87 | 3 | 4.0 | 17.0 | 0.00 | 0.00 | 0.00 | 62 | 1001.2 |
| 20260506173004 | 88 | 9 | 9.0 | 17.0 | 0.00 | 0.00 | 0.00 | 60 | 1001.0 |
| 20260506172501 | 88 | 40 | 8.0 | 17.0 | 0.00 | 0.00 | 0.00 | 61 | 1001.2 |
| 20260506172004 | 88 | 22 | 10.0 | 17.0 | 0.00 | 0.00 | 0.00 | 60 | 1001.4 |
| 20260506171500 | 87 | 354 | 8.0 | 16.0 | 0.00 | 0.00 | 0.00 | 62 | 1001.4 |
| 20260506171003 | 87 | 7 | 8.0 | 17.0 | 0.00 | 0.00 | 0.00 | 63 | 1001.5 |
| 20260506170500 | 88 | 13 | 8.0 | 17.0 | 0.00 | 0.00 | 0.00 | 62 | 1001.6 |
| 20260506170004 | 88 | 10 | 8.0 | 15.0 | 0.00 | 0.00 | 0.00 | 62 | 1001.7 |
| 20260506165500 | 87 | 22 | 8.0 | 13.0 | 0.00 | 0.00 | 0.00 | 64 | 1002.0 |
| 20260506165003 | 88 | 35 | 6.0 | 13.0 | 0.00 | 0.00 | 0.00 | 64 | 1001.8 |
| 20260506164003 | 87 | 15 | 5.0 | 15.0 | 0.00 | 0.00 | 0.00 | 64 | 1001.9 |
| 20260506163004 | 86 | 34 | 5.0 | 15.0 | 0.00 | 0.00 | 0.00 | 67 | 1002.2 |
| 20260506162003 | 86 | 350 | 9.0 | 15.0 | 0.00 | 0.00 | 0.00 | 67 | 1002.0 |
| 20260506161501 | 86 | 5 | 10.0 | 15.0 | 0.00 | 0.00 | 0.00 | 66 | 1002.3 |
| 20260506161004 | 85 | 17 | 8.0 | 15.0 | 0.00 | 0.00 | 0.00 | 69 | 1002.4 |
| 20260506160500 | 85 | 11 | 6.0 | 15.0 | 0.00 | 0.00 | 0.00 | 68 | 1002.5 |
| 20260506160003 | 85 | 21 | 4.0 | 13.0 | 0.00 | 0.00 | 0.00 | 68 | 1002.7 |
| 20260506155500 | 85 | 24 | 8.0 | 13.0 | 0.00 | 0.00 | 0.00 | 69 | 1002.4 |
| 20260506155003 | 85 | 5 | 7.0 | 13.0 | 0.00 | 0.00 | 0.00 | 68 | 1002.5 |
| 20260506154501 | 85 | 4 | 3.0 | 16.0 | 0.00 | 0.00 | 0.00 | 69 | 1002.5 |
| 20260506153501 | 85 | 23 | 7.0 | 13.0 | 0.00 | 0.00 | 0.00 | 69 | 1003.1 |
| 20260506153004 | 85 | 40 | 5.0 | 14.0 | 0.00 | 0.00 | 0.00 | 69 | 1003.1 |
| 20260506152004 | 84 | 23 | 5.0 | 13.0 | 0.00 | 0.00 | 0.00 | 70 | 1003.3 |
| 20260506151501 | 84 | 32 | 7.0 | 14.0 | 0.00 | 0.00 | 0.00 | 71 | 1003.1 |
| 20260506151005 | 84 | 37 | 5.0 | 14.0 | 0.00 | 0.00 | 0.00 | 70 | 1003.6 |
| 20260506150501 | 84 | 34 | 9.0 | 14.0 | 0.00 | 0.00 | 0.00 | 71 | 1003.7 |
| 20260506150003 | 83 | 26 | 8.0 | 13.0 | 0.00 | 0.00 | 0.00 | 71 | 1003.6 |
| 20260506145003 | 83 | 14 | 6.0 | 11.0 | 0.00 | 0.00 | 0.00 | 72 | 1003.7 |
| 20260506144501 | 83 | 37 | 7.0 | 14.0 | 0.00 | 0.00 | 0.00 | 74 | 1004.4 |
| 20260506143502 | 82 | 37 | 7.0 | 14.0 | 0.00 | 0.00 | 0.00 | 74 | 1004.3 |
| 20260506142501 | 82 | 13 | 6.0 | 17.0 | 0.00 | 0.00 | 0.00 | 74 | 1004.4 |
| 20260506141500 | 82 | 4 | 5.0 | 15.0 | 0.00 | 0.00 | 0.00 | 73 | 1004.7 |
| 20260506140500 | 81 | 12 | 7.0 | 16.0 | 0.00 | 0.00 | 0.00 | 76 | 1004.6 |
| 20260506140004 | 82 | 5 | 11.0 | 16.0 | 0.00 | 0.00 | 0.00 | 75 | 1004.7 |
| 20260506135502 | 82 | 19 | 10.0 | 16.0 | 0.00 | 0.00 | 0.00 | 75 | 1004.6 |
| 20260506135005 | 81 | 30 | 6.0 | 14.0 | 0.00 | 0.00 | 0.00 | 76 | 1004.6 |